Regional Weather Roundup
Issued by NWS

Home | Current Version | Previous Version | Text Only | Print | Product List | Glossary On
Versions: 1 2 3 4 5 6 7 8 9 10 11 12 13 14 15 16 17 18 19 20 21 22 23 24 25 26 27 28 29 30 31 32 33 34 35 36 37 38 39 40 41 42 43 44 45 46 47 48 49 50
000
ASUS43 KBIS 140110
RWRND

NORTH DAKOTA REGIONAL WEATHER ROUNDUP
NATIONAL WEATHER SERVICE BISMARCK ND
700 PM CST WED DEC 13 2017

NOTE: "FAIR" INDICATES FEW OR NO CLOUDS BELOW 12,000 FEET WITH NO
SIGNIFICANT WEATHER AND/OR OBSTRUCTIONS TO VISIBILITY.


NDZ001>003-009>011-017-140200-
NORTHWEST NORTH DAKOTA

CITY           SKY/WX    TMP DP  RH WIND       PRES   REMARKS
WILLISTON      CLOUDY    33  25  72 W9        30.02S
MINOT          CLOUDY    33  25  72 NW14      29.97R
MINOT AFB      CLOUDY    31  25  77 NW10      29.96R
$$

NDZ018>021-031>035-040>046-140200-
SOUTHWEST NORTH DAKOTA

CITY           SKY/WX    TMP DP  RH WIND       PRES   REMARKS
BISMARCK       MOCLDY    34  25  69 NW14      30.00R
DICKINSON      PTCLDY    31  23  72 NW13      29.99S
GARRISON         N/A     28  23  81 NW9       29.98R WCI  19
HETTINGER ARPT PTCLDY    33  23  66 NW14      30.03R
$$

NDZ004>008-012>016-024-026-027-054-140200-
NORTHEAST NORTH DAKOTA

CITY           SKY/WX    TMP DP  RH WIND       PRES   REMARKS
GRAND FORKS    FLURRIES  20  16  84 N15       29.98R WCI   6
GRND FRKS AFB  FLURRIES  19  14  79 N14       29.98R WCI   6
DEVILS LAKE    CLOUDY    23  19  86 N14       29.96R WCI  11
$$

NDZ022-023-025-028>030-036>039-047>053-140200-
SOUTHEAST NORTH DAKOTA

CITY           SKY/WX    TMP DP  RH WIND       PRES   REMARKS
FARGO          CLOUDY    22  17  81 N14       29.95R WCI   9
JAMESTOWN      FRZ RAIN  27  25  92 NE15      29.94R WCI  15
$$




USA.gov is the U.S. government's official web portal to all federal, state and local government web resources and services.